Location: Township of Marena
(38.1747°N, 99.6798°W)
Time: 14:54:58
(UTC+00:00)

Cosmos 2227 Rocket - Pass Details

Date: 26 October 2020
Orbit: 839 x 845 km, 71.0° (Epoch: 29 November)

Event Time Altitude Azimuth Distance (km) Brightness Sun altitude
Rises 02:23:45 0° 329° (NNW) 3,403 5.9 -31.4°
Reaches altitude 10° 02:26:20 10° 322° (NW) 2,466 5.1 -31.9°
Maximum altitude 02:31:32 39° 255° (WSW) 1,236 3.3 -32.9°
Enters shadow 02:32:48 35° 225° (SW) 1,339 3.4 -33.2°
